Location: Lewisville
(33.0462°N, 96.9942°W)
Time: 12:10:57
(UTC-06:00)

X-37B - Pass Details

Date: 04 December 2021
Orbit: 334 x 337 km, 45.0° (Epoch: 11 January)

Event Time Altitude Azimuth Distance (km) Brightness Sun altitude
Rises 17:48:24 0° 204° (SSW) 2,086 5.1 -6.1°
Reaches altitude 10° 17:50:45 10° 185° (S) 1,254 3.5 -6.5°
Maximum altitude 17:52:48 18° 138° (SE) 895 2.2 -6.9°
Drops below altitude 10° 17:54:51 10° 91° (E) 1,260 2.6 -7.3°
Enters shadow 17:55:06 - 88° (E) 1,339 2.7 -7.4°
